{"data":{"norad_id":58692,"intl_designator":"2023-212B","name":"HULIANWANG JISHU SHIYAN*","alt_names":[],"object_type":"PAYLOAD","status":"ACTIVE","operator":null,"country":"PRC","launch_date":"2023-12-30","launch_site_code":"JSC","launch_vehicle":null,"mission":null,"orbit_class":"UNKNOWN","rcs_meters":null,"size_class":null,"mass_kg":null,"dimensions":null,"purposes":[],"wikipedia_slug":null,"has_3d_model":false,"image_url":null,"decayed_at":null,"tle_current":{"epoch":"2026-05-25T04:47:54.591360Z","epoch_age_seconds":51094,"freshness":"FRESH","line1":"1 58692U 23212B   26145.19993740 -.00000100  00000+0  50126-4 0  9999","line2":"2 58692  49.9978  68.3234 0001313  27.5215 332.5732 13.41457048118163","mean_motion":13.41457048,"eccentricity":0.0001313,"inclination_deg":49.9978,"raan_deg":68.3234,"arg_perigee_deg":27.5215,"mean_anomaly_deg":332.5732,"bstar":5.0126e-5,"rev_number":11816,"period_min":107.3459640133,"perigee_km":1102.8741204573,"apogee_km":1104.8388919521,"semimajor_km":7481.9935062047,"source":"CELESTRAK","updated_at":"2026-05-25T13:38:00.911454Z"}}}